Simultaneous Nadir Overpasses (SNOs) Predictions

Prediction of SNOs near US between AQUA and NPP Satellite Orbit:

Table of predicted SNOs near US for the next 10.0 days since TLE Epoch: 6/19/2020
Index Date (AQUA) Time (AQUA) AQUA Lat,Lon Date (NPP) Time (NPP) NPP Lat,Lon Distance(km) Time Diff (sec)
1 06/20/2020 07:18:52 49.93, -75.97 06/20/2020 07:19:43 50.33, -78.09 157.39 51
2 06/20/2020 08:57:45 49.94,-100.69 06/20/2020 09:01:10 50.49,-103.39 201.83 205
3 06/22/2020 18:17:01 49.99, -80.18 06/22/2020 18:09:58 49.70, -81.66 111.06 423
4 06/22/2020 19:55:54 49.99,-104.90 06/22/2020 19:51:26 49.60,-106.99 156.25 268
5 06/22/2020 21:31:04 36.69,-124.98 06/22/2020 21:29:05 36.22,-127.48 229.46 119
6 06/25/2020 09:24:35 20.06,-114.22 06/25/2020 09:16:15 19.83,-114.68 54.55 500
7 06/28/2020 06:30:49 44.88, -65.57 06/28/2020 06:30:24 45.19, -67.52 157.63 25
8 06/28/2020 08:08:17 49.93, -88.33 06/28/2020 08:10:24 50.38, -90.73 178.74 127
9 06/28/2020 09:47:10 49.93,-113.05 06/28/2020 09:51:51 50.54,-116.03 223.11 281




NCC Satellite Simultaneous Nadir Overpasses (SNOs) Prediction Service
